Home > Weather > Houston > Past weeks

Flag for USA Past Weather in Houston, Texas, USA — Yesterday and Last 2 Weeks

Now
79 °F

Passing clouds.


Feels Like: 83 °F
Forecast: 77 / 92 °F
Wind: No wind

Location: Houston Hobby Airport

Current Time: Jun 26, 2016 at 6:48:08 AM

Latest Report: Jun 26, 2016 at 5:53 AM


Visibility: 10 mi

Pressure: 30.09 "Hg

Humidity: 90%

Dew Point: 76 °F

Location of HoustonLocation

Past Weather in Houston — Graph

°F

Houston Temperature Yesterday

Maximum temperature yesterday: 92 °F (at 3:53 PM)
Minimum temperature yesterday: 77 °F (at 10:53 AM)
Average temperature yesterday: 84 °F

High & Low Weather Summary for the Past Weeks

 TemperatureHumidityPressure
High96 °F (Jun 18, 2:53 PM)97% (Jun 12, 6:53 PM)30.21 "Hg (Jun 12, 6:53 PM)
Low73 °F (Jun 18, 8:00 PM)43% (Jun 15, 2:53 PM)29.86 "Hg (Jun 14, 5:53 PM)
Average83 °F77%30.02 "Hg
* Reported Jun 11 4:53 AM — Jun 26 4:53 AM, Houston, Weather by CustomWeather, © 2016

Note: Actual official high and low records may vary slightly from our data, if they occured in-between our weather recording intervals... More about our weather records

Advertising

Houston Weather History for the Previous 24 Hours

Scroll right to see more
 ConditionsComfort  
Time TempWeatherWind HumidityBarometerVisibility
4:53 AM
Sun, Jun 26
79 °FPassing clouds.No wind90%30.08 "Hg10 mi
3:53 AM80 °FPassing clouds.No wind87%30.07 "Hg10 mi
2:53 AM80 °FPassing clouds.No wind87%30.06 "Hg10 mi
1:53 AM81 °FPassing clouds.No wind85%30.06 "Hg10 mi
12:53 AM80 °FPassing clouds.5 mph87%30.05 "Hg10 mi
11:53 PM
Sat, Jun 25
81 °FPassing clouds.3 mph85%30.06 "Hg10 mi
10:53 PM82 °FPassing clouds.3 mph79%30.05 "Hg10 mi
9:53 PM83 °FPassing clouds.No wind77%30.04 "Hg10 mi
8:53 PM83 °FPartly sunny.7 mph74%30.03 "Hg10 mi
7:53 PM86 °FPartly sunny.8 mph63%30.03 "Hg10 mi
6:53 PM88 °FPartly sunny.12 mph63%30.02 "Hg10 mi
5:53 PM90 °FBroken clouds.13 mph59%30.01 "Hg10 mi
4:53 PM91 °FBroken clouds.10 mph57%30.02 "Hg10 mi
3:53 PM92 °FPartly sunny.10 mph58%30.03 "Hg10 mi
2:53 PM88 °FPartly sunny.10 mph65%30.04 "Hg10 mi
1:53 PM86 °FRain. Broken clouds.6 mph72%30.06 "Hg8 mi
12:53 PM89 °FPartly sunny.8 mph63%30.06 "Hg10 mi
11:53 AM87 °FBroken clouds.3 mph75%30.08 "Hg10 mi
10:53 AM77 °FStrong thunderstorms. Fog.9 mph88%30.09 "Hg2 mi
9:53 AM88 °FPartly sunny.7 mph67%30.08 "Hg10 mi
8:53 AM86 °FBroken clouds.7 mph75%30.08 "Hg10 mi
7:53 AM83 °FScattered clouds.3 mph82%30.06 "Hg10 mi
6:53 AM79 °FPassing clouds.3 mph90%30.05 "Hg10 mi
Weather by CustomWeather, © 2016

See weather overviewHow to use our weather pages